Flag for U.S.A. Weather past 2 weeks in Memphis, Tennessee, U.S.A.

Now
58 °F

Clear.


Feels Like: 56 °F
Forecast: 49 / 67 °F
Wind: 9 mph from East

Location: Memphis International Airport

Current Time: Oct 22, 2014 at 2:32:45 AM

Latest Report: Oct 22, 2014 at 1:54 AM


Visibility: 10 mi

Pressure: 30.12 "Hg

Humidity: 65%

Dew point: 46 °F

Location of MemphisLocation

Historic Weather in Memphis — Graph

°F

Memphis temperature yesterday

Maximum temperature yesterday: 76 °F (at 1:54 PM)
Minimum temperature yesterday: 54 °F (at 4:54 AM)
Average temperature yesterday: 64 °F

Past Weeks' High & Low Weather Summary

 TemperatureHumidityPressure
High85 °F (Oct 9, 1:54 PM)97% (Oct 12, 2:54 AM)30.24 "Hg (Oct 12, 2:54 AM)
Low49 °F (Oct 19, 6:54 AM)33% (Oct 21, 2:54 PM)29.63 "Hg (Oct 14, 2:54 AM)
Average66 °F73%29.96 "Hg
* Reported Oct 7 12:54 AM — Oct 22 12:54 AM, Memphis, Weather by CustomWeather, © 2014

Note: Actual official high and low records may vary slightly from our data, if they occured in-between our weather recording intervals... More about our weather records

Advertising

Memphis weather history for previous 24 hours

 ConditionsComfort  
Time TempWeatherWind HumidityBarometerVisibility
12:54 AM
Oct 22
60 °FClear.8 mph62%30.10 "Hg10 mi
11:54 PM
Oct 21
61 °FClear.8 mph60%30.10 "Hg10 mi
10:54 PM58 °FClear.No wind72%30.10 "Hg10 mi
9:54 PM58 °FClear.No wind72%30.09 "Hg10 mi
8:54 PM59 °FClear.No wind67%30.08 "Hg10 mi
7:54 PM63 °FClear.No wind56%30.07 "Hg10 mi
6:54 PM69 °FClear.No wind42%30.05 "Hg10 mi
5:54 PM71 °FSunny.7 mph39%30.04 "Hg10 mi
4:54 PM74 °FSunny.7 mph33%30.04 "Hg10 mi
3:54 PM76 °FSunny.No wind35%30.04 "Hg10 mi
2:54 PM76 °FSunny.9 mph33%30.05 "Hg10 mi
1:54 PM76 °FSunny.7 mph36%30.06 "Hg10 mi
12:54 PM75 °FSunny.3 mph34%30.08 "Hg10 mi
11:54 AM75 °FSunny.10 mph36%30.10 "Hg10 mi
10:54 AM72 °FSunny.3 mph43%30.10 "Hg10 mi
9:54 AM68 °FSunny.No wind57%30.10 "Hg10 mi
8:54 AM62 °FSunny.3 mph75%30.09 "Hg10 mi
7:54 AM56 °FSunny.No wind93%30.07 "Hg10 mi
6:54 AM55 °FPassing clouds.No wind90%30.06 "Hg10 mi
5:54 AM55 °FClear.No wind90%30.04 "Hg10 mi
4:54 AM54 °FClear.No wind93%30.03 "Hg10 mi
3:54 AM56 °FClear.No wind87%30.01 "Hg10 mi
2:54 AM56 °FPassing clouds.No wind90%30.02 "Hg10 mi
Weather by CustomWeather, © 2014

See weather overviewHow to use our weather pages